CW5709 Weather Reports


Display with metric or nautical units.
time (UTC)temp
F
wind
direction
speed
MPH
gust
MPH
rain 1hr
in
rain 24hr
in
rain mn
in
humidity
%
barometer
mb
20260902114556 57 0.0 0.0 0.00 0.00 0.00 82 1009.9
20260902113007 57 0.0 0.0 0.00 0.00 0.00 82 1010.0
20260902111514 58 0.0 0.0 0.00 0.00 0.00 82 1010.3
20260902110021 58 0.0 0.0 0.00 0.00 0.00 82 1010.6
20260902104525 57 0.0 0.0 0.00 0.00 0.00 82 1010.8
20260902103028 57 0.0 0.0 0.00 0.00 0.00 82 1010.9
20260902101508 57 0.0 0.0 0.00 0.00 0.00 82 1011.1
20260902100015 57 0.0 0.0 0.00 0.00 0.00 83 1011.2
20260902094521 57 0.0 0.0 0.00 0.00 0.00 83 1011.1
20260902093027 57 0.0 0.0 0.00 0.00 0.00 83 1011.5
20260902091529 57 0.0 0.0 0.00 0.00 0.00 83 1011.5
20260902090019 56 0.0 0.0 0.00 0.00 0.00 82 1011.7
20260902084519 56 0.0 0.0 0.00 0.00 0.00 82 1011.7
20260902083029 57 0.0 0.0 0.00 0.00 0.00 80 1011.7
20260902081526 57 0.0 0.0 0.00 0.00 0.00 80 1011.8
20260902080034 58 0.0 0.0 0.00 0.00 0.00 80 1011.9
20260902074523 58 0.0 0.0 0.00 0.00 0.00 80 1011.9
20260902073024 58 0.0 0.0 0.00 0.00 0.00 80 1012.1
20260902071527 58 0.0 0.0 0.00 0.00 0.00 79 1012.1
20260902070032 58 0.0 0.0 0.00 0.00 0.00 78 1012.2
20260902064537 58 0.0 0.0 0.00 0.00 0.00 78 1012.4
20260902063021 59 0.0 0.0 0.00 0.00 0.00 78 1012.6
20260902061526 59 0.0 0.0 0.00 0.00 0.00 77 1012.9
20260902060029 59 0.0 0.0 0.00 0.00 0.00 77 1013.0
20260902054539 60 0.0 0.0 0.00 0.00 0.00 76 1013.1
20260902053034 60 0.0 0.0 0.00 0.00 0.00 76 1013.2
20260902051526 61 0.0 0.0 0.00 0.00 0.00 75 1013.0
20260902050037 61 0.0 0.0 0.00 0.00 0.00 75 1013.2
20260902044530 62 0.0 0.0 0.00 0.00 0.00 74 1013.2
20260902043015 62 0.0 0.0 0.00 0.00 0.00 74 1013.0
20260902041524 62 0.0 0.0 0.00 0.00 0.00 73 1013.0
20260902040027 62 0.0 0.0 0.00 0.00 0.00 72 1012.8
20260902034504 62 0.0 0.0 0.00 0.00 0.00 72 1012.6
20260902033011 63 0.0 0.0 0.00 0.00 0.00 71 1012.5
20260902031517 63 0.0 0.0 0.00 0.00 0.00 70 1012.6
20260902030025 63 0.0 0.0 0.00 0.00 0.00 69 1012.7
20260902024536 64 0.0 0.0 0.00 0.00 0.00 68 1012.8
20260902023008 64 0.0 0.0 0.00 0.00 0.00 68 1013.0
20260902021514 64 0.0 0.0 0.00 0.00 0.00 67 1012.9
20260902020017 65 0.0 0.0 0.00 0.00 0.00 68 1012.8
20260902014533 65 0.0 0.0 0.00 0.00 0.00 68 1012.7
20260902013028 65 0.0 0.0 0.00 0.00 0.00 68 1012.5
20260902011508 65 0.0 0.0 0.00 0.00 0.00 68 1012.6
20260902010024 66 0.0 0.0 0.00 0.00 0.00 67 1012.6
20260902004523 66 0.0 0.0 0.00 0.00 0.00 68 1012.5
20260902003029 65 0.0 0.0 0.00 0.00 0.00 68 1012.5
20260902001531 65 0.0 0.0 0.00 0.00 0.00 67 1012.5
20260902000011 66 0.0 0.0 0.00 0.00 0.00 66 1012.4
20260901234515 66 0.0 0.0 0.00 0.00 0.00 65 1012.4
20260901233048 66 0.0 0.0 0.00 0.00 0.00 63 1012.3
20260901231532 67 0.0 0.0 0.00 0.00 0.00 62 1012.5
20260901230036 67 0.0 0.0 0.00 0.00 0.00 61 1012.4
20260901224515 67 0.0 0.0 0.00 0.00 0.00 62 1012.4
20260901223018 67 0.0 0.0 0.00 0.00 0.00 61 1012.5
20260901221532 67 0.0 0.0 0.00 0.00 0.00 61 1012.4
20260901220010 67 0.0 0.0 0.00 0.00 0.00 61 1012.4
20260901214526 68 0.0 0.0 0.00 0.00 0.00 59 1012.2
20260901213018 68 0.0 0.0 0.00 0.00 0.00 59 1012.3
20260901211525 67 0.0 0.0 0.00 0.00 0.00 61 1012.2
20260901210004 68 0.0 0.0 0.00 0.00 0.00 60 1012.3
20260901204513 67 0.0 0.0 0.00 0.00 0.00 61 1012.2
20260901203014 67 0.0 0.0 0.00 0.00 0.00 62 1012.3
20260901201523 66 0.0 0.0 0.00 0.00 0.00 64 1012.4
20260901200033 66 0.0 0.0 0.00 0.00 0.00 63 1012.4
20260901194516 66 0.0 0.0 0.00 0.00 0.00 63 1012.4
20260901193014 66 0.0 0.0 0.00 0.00 0.00 64 1012.5
20260901191519 66 0.0 0.0 0.00 0.00 0.00 63 1012.7
20260901190030 67 0.0 0.0 0.00 0.00 0.00 64 1012.8
20260901184526 67 0.0 0.0 0.00 0.00 0.00 64 1012.8
20260901183007 67 0.0 0.0 0.00 0.00 0.00 64 1012.8
20260901181520 66 0.0 0.0 0.00 0.00 0.00 67 1012.8
20260901180023 65 0.0 0.0 0.00 0.00 0.00 69 1012.8
20260901174528 63 0.0 0.0 0.00 0.00 0.00 73 1012.9
20260901173032 63 0.0 0.0 0.00 0.00 0.00 77 1012.9
20260901171511 62 0.0 0.0 0.00 0.00 0.00 79 1013.0
20260901170017 61 0.0 0.0 0.00 0.00 0.00 81 1012.9
20260901164524 61 0.0 0.0 0.00 0.00 0.00 81 1013.0
20260901163036 60 0.0 0.0 0.00 0.00 0.00 84 1013.0
20260901161532 60 0.0 0.0 0.00 0.00 0.00 84 1013.2
20260901160016 59 0.0 0.0 0.00 0.00 0.00 85 1013.4
20260901154527 59 0.0 0.0 0.00 0.00 0.00 84 1013.4
20260901153042 59 0.0 0.0 0.00 0.00 0.00 83 1013.3
20260901151532 59 0.0 0.0 0.00 0.00 0.00 81 1013.2
20260901150035 59 0.0 0.0 0.00 0.00 0.00 81 1013.1
20260901144525 59 0.0 0.0 0.00 0.00 0.00 81 1013.1
20260901143028 59 0.0 0.0 0.00 0.00 0.00 81 1013.0
20260901141529 59 0.0 0.0 0.00 0.00 0.00 80 1013.0
20260901140031 59 0.0 0.0 0.00 0.00 0.00 80 1012.8
20260901134531 59 0.0 0.0 0.00 0.00 0.00 79 1012.7
20260901133025 59 0.0 0.0 0.00 0.00 0.00 79 1012.7
20260901131506 59 0.0 0.0 0.00 0.00 0.00 79 1012.5
20260901130010 59 0.0 0.0 0.00 0.00 0.00 79 1012.5
20260901124516 59 0.0 0.0 0.00 0.00 0.00 79 1012.4
20260901123026 59 0.0 0.0 0.00 0.00 0.00 78 1012.5
20260901121530 59 0.0 0.0 0.00 0.00 0.00 79 1012.5
20260901120008 59 0.0 0.0 0.00 0.00 0.00 78 1012.4